This is the latest recevied weather packets stored in our database for station/object ON5MM-5. If no packets are shown the sender has not sent any weather packets the latest 10 day(s).
| Time | Temp. | Humidity | Pressure | Rain* | Wind** | Luminosity | Snow |
|---|---|---|---|---|---|---|---|
| 1778059502 | 8.89° C | 92% | 1009.3 hPa | 1.78 mm | 1.34 m/s, ° | - | - |
| 1778059203 | 8.33° C | 92% | 1009.3 hPa | 1.27 mm | 0.89 m/s, ° | - | - |
| 1778058903 | 8.33° C | 92% | 1009.2 hPa | 1.78 mm | 1.79 m/s, ° | - | - |
| 1778058603 | 8.33° C | 92% | 1009.2 hPa | 1.27 mm | 2.24 m/s, ° | - | - |
| 1778058302 | 8.33° C | 92% | 1009.2 hPa | 1.78 mm | 2.24 m/s, ° | - | - |
| 1778058003 | 8.33° C | 92% | 1009.2 hPa | 1.78 mm | 1.34 m/s, ° | - | - |
| 1778057703 | 8.33° C | 92% | 1009.1 hPa | 1.78 mm | 0.89 m/s, ° | - | - |
| 1778057402 | 8.89° C | 92% | 1009.1 hPa | 1.78 mm | 0 m/s | - | - |
| 1778057102 | 8.89° C | 92% | 1009.1 hPa | 1.78 mm | 0 m/s | - | - |
| 1778056803 | 8.33° C | 92% | 1009.1 hPa | 1.27 mm | 0.45 m/s, ° | - | - |
| 1778056503 | 8.33° C | 92% | 1009 hPa | 1.27 mm | 0.45 m/s, ° | - | - |
| 1778056203 | 8.33° C | 92% | 1009 hPa | 1.27 mm | 0.45 m/s, ° | - | - |
| 1778055902 | 8.33° C | 92% | 1008.9 hPa | 1.78 mm | 1.34 m/s, ° | - | - |
| 1778055602 | 8.33° C | 92% | 1008.9 hPa | 1.27 mm | 0.45 m/s, ° | - | - |
| 1778055302 | 8.33° C | 92% | 1008.9 hPa | 1.27 mm | 0.45 m/s, ° | - | - |
| 1778055002 | 8.33° C | 92% | 1008.8 hPa | 1.02 mm | 0.89 m/s, ° | - | - |
| 1778054702 | 8.33° C | 92% | 1008.8 hPa | 1.27 mm | 0 m/s | - | - |
| 1778054402 | 8.33° C | 92% | 1008.8 hPa | 1.02 mm | 0 m/s | - | - |
| 1778054103 | 8.33° C | 92% | 1008.7 hPa | 1.02 mm | 0 m/s | - | - |
| 1778053803 | 8.33° C | 92% | 1008.7 hPa | 0.76 mm | 0 m/s | - | - |
| 1778053503 | 8.33° C | 92% | 1008.7 hPa | 0.76 mm | 0 m/s | - | - |
| 1778053202 | 8.33° C | 92% | 1008.6 hPa | 0.51 mm | 0.89 m/s, ° | - | - |
| 1778052903 | 8.33° C | 92% | 1008.6 hPa | 0.51 mm | 1.34 m/s, ° | - | - |
| 1778052602 | 8.33° C | 92% | 1008.6 hPa | 0.51 mm | 0.89 m/s, ° | - | - |
| 1778052302 | 8.33° C | 92% | 1008.5 hPa | 0.25 mm | 0.89 m/s, ° | - | - |
* Rain latest hour (hover to see other rain measurements)
** Current wind speed in m/s (hover to see current wind gust speed)